Location: Dąbrowa Tarnowska
(50.1745°N, 20.9866°E)
Time: 02:04:48
(UTC+01:00)

ISS - Visible Passes

Search period start: 23 January 2019 00:00
Search period end: 02 February 2019 00:00
Orbit: 404 x 411 km, 51.6° (Epoch: 23 January)

Date Brightness Start Highest point End Pass type
(mag) Time Alt. Az. Time Alt. Az. Time Alt. Az.
23 Jan -1.6 18:39:48 10° SSW 18:41:04 19° SSW 18:41:04 19° SSW visible
24 Jan -2.2 17:49:02 10° SSW 17:51:36 21° SE 17:52:03 21° SE visible
24 Jan -0.5 19:24:30 10° WSW 19:24:46 12° WSW 19:24:46 12° WSW visible
25 Jan -1.5 16:58:43 10° S 17:00:27 14° SE 17:02:13 10° ESE visible
25 Jan -2.8 18:33:13 10° SW 18:35:40 42° SSW 18:35:40 42° SSW visible
26 Jan -3.0 17:42:04 10° SW 17:45:10 39° SSE 17:46:30 26° E visible
26 Jan -0.9 19:18:17 10° W 19:19:13 18° W 19:19:13 18° W visible
27 Jan -3.8 18:26:52 10° WSW 18:30:00 78° WSW 18:30:00 78° WSW visible
28 Jan -3.7 17:35:31 10° WSW 17:38:48 67° SSE 17:40:44 23° E visible
28 Jan -1.3 19:12:06 10° W 19:13:26 22° W 19:13:26 22° W visible
29 Jan -3.8 18:20:38 10° W 18:23:56 70° N 18:24:08 67° NNE visible
30 Jan -3.8 17:29:10 10° WSW 17:32:29 82° NNW 17:34:49 18° ENE visible
30 Jan -1.7 19:05:51 10° WNW 19:07:31 27° WNW 19:07:31 27° WNW visible
31 Jan -3.7 18:14:23 10° W 18:17:41 65° N 18:18:11 54° NE visible
01 Feb -3.7 17:22:53 10° W 17:26:10 67° N 17:28:51 15° ENE visible
01 Feb -2.2 18:59:31 10° WNW 19:01:34 35° WNW 19:01:34 35° WNW visible
